ProjectID,Date,Electric Generation,Electric Utility Import,Facility Electric Load
,YYYY-MM-DD,kW,kW,kW
432,2017-04-01,0.0,,0.0
432,2017-04-02,0.0,,0.0
432,2017-04-03,0.0,,0.0
432,2017-04-04,0.0,,0.0
432,2017-04-05,0.0,,0.0
432,2017-04-06,0.0,,0.0
432,2017-04-07,0.0,,0.0
432,2017-04-08,0.0,,0.0
432,2017-04-09,0.0,,0.0
432,2017-04-10,0.0,,0.0
432,2017-04-11,0.0,,0.0
432,2017-04-12,0.0,,0.0
432,2017-04-13,0.0,,0.0
432,2017-04-14,194.98395833333333,91.42708333333333,286.4110416666667
432,2017-04-15,114.63125000000001,61.458333333333336,176.08958333333334
432,2017-04-16,108.15020833333334,58.447916666666664,166.598125
432,2017-04-17,116.44166666666666,61.458333333333336,177.9
432,2017-04-18,158.39445833333335,77.07291666666667,235.467375
432,2017-04-19,180.30812500000002,87.375,267.683125
432,2017-04-20,251.90795833333334,124.25,376.15795833333334
432,2017-04-21,196.53225,89.34375,285.876
432,2017-04-22,154.455375,71.58333333333333,226.03870833333332
432,2017-04-23,123.433625,60.770833333333336,184.20445833333335
432,2017-04-24,119.95554166666666,61.697916666666664,181.65345833333333
432,2017-04-25,160.69616666666667,77.625,238.32116666666667
432,2017-04-26,147.059625,72.01041666666667,219.07004166666667
432,2017-04-27,125.42641666666667,67.44791666666667,192.87433333333334
432,2017-04-28,106.41779166666667,59.989583333333336,166.407375
432,2017-04-29,121.13979166666667,64.47916666666667,185.61895833333335
432,2017-04-30,131.78670833333334,68.11458333333333,199.90129166666668
432,2017-05-01,127.46479166666667,66.54166666666667,194.00645833333334
432,2017-05-02,199.55566666666667,96.01041666666667,295.5660833333333
432,2017-05-03,152.21808333333334,78.875,231.09308333333334
432,2017-05-04,176.23270833333333,85.36458333333333,261.59729166666665
432,2017-05-05,205.774125,94.40625,300.180375
432,2017-05-06,183.24745833333336,84.67708333333333,267.9245416666667
432,2017-05-07,111.80604166666666,60.020833333333336,171.826875
432,2017-05-08,180.540375,90.0625,270.60287500000004
432,2017-05-09,159.41512500000002,79.9375,239.35262500000002
432,2017-05-10,167.240625,82.20833333333333,249.44895833333334
432,2017-05-11,152.55595833333334,76.95833333333333,229.51429166666668
432,2017-05-12,164.46029166666668,83.26041666666667,247.72070833333333
432,2017-05-13,174.28,88.57291666666667,262.85291666666666
432,2017-05-14,85.544625,54.447916666666664,139.99254166666665
432,2017-05-15,110.86174999999999,62.989583333333336,173.85133333333332
432,2017-05-16,273.54904166666665,148.82291666666666,422.3719583333333
432,2017-05-17,169.931,87.55208333333333,257.48308333333335
432,2017-05-18,179.0377083333333,87.73958333333333,266.77729166666666
432,2017-05-19,316.6295833333333,155.91666666666666,472.54625
432,2017-05-20,462.91608333333335,239.90625,702.8223333333333
432,2017-05-21,153.30395833333333,87.88541666666667,241.18937499999998
432,2017-05-22,0.0,0.0,0.0
432,2017-05-23,77.64895833333334,40.208333333333336,117.85729166666667
432,2017-05-24,233.14183333333335,118.1875,351.32933333333335
432,2017-05-25,513.5424583333333,286.0625,799.6049583333333
432,2017-05-26,453.47404166666666,263.625,717.0990416666666
432,2017-05-27,16.338083333333334,9.625,25.963083333333334
432,2017-05-28,0.0,0.0,0.0
432,2017-05-29,282.5994583333333,166.47916666666666,449.078625
432,2017-05-30,440.61604166666666,278.90625,719.5222916666667
432,2017-05-31,482.05579166666666,299.6458333333333,781.7016249999999
432,2017-06-01,504.7729583333333,311.9270833333333,816.7000416666666
432,2017-06-02,16.779041666666668,9.145833333333334,25.924875
432,2017-06-03,0.0,0.0,0.0
432,2017-06-04,181.3845,110.76041666666667,292.1449166666667
432,2017-06-05,494.5650416666667,297.5520833333333,792.117125
432,2017-06-06,491.63070833333336,292.9479166666667,784.5786250000001
432,2017-06-07,575.6450416666667,327.4166666666667,903.0617083333334
432,2017-06-08,621.5760416666667,332.1666666666667,953.7427083333334
432,2017-06-09,18.43875,9.6875,28.12625
432,2017-06-10,0.0,0.0,0.0
432,2017-06-11,0.0,0.0,0.0
432,2017-06-12,298.44141666666667,216.10416666666666,514.5455833333333
432,2017-06-13,535.58775,340.4270833333333,876.0148333333334
432,2017-06-14,470.4148333333333,303.6458333333333,774.0606666666666
432,2017-06-15,509.038,304.9166666666667,813.9546666666668
432,2017-06-16,15.711333333333334,8.989583333333334,24.700916666666668
432,2017-06-17,0.0,0.0,0.0
432,2017-06-18,34.760875,114.67708333333333,149.4379583333333
432,2017-06-19,256.4565,205.0625,461.519
432,2017-06-20,394.70733333333334,239.79166666666666,634.499
432,2017-06-21,491.54625000000004,283.8333333333333,775.3795833333334
432,2017-06-22,535.336,300.6770833333333,836.0130833333333
432,2017-06-23,17.623375,9.59375,27.217125
432,2017-06-24,0.0,0.0,0.0
432,2017-06-25,296.8940833333333,195.84375,492.7378333333333
432,2017-06-26,404.47054166666663,236.45833333333334,640.928875
432,2017-06-27,452.29604166666667,256.5,708.7960416666667
432,2017-06-28,457.97291666666666,275.0104166666667,732.9833333333333
432,2017-06-29,422.77204166666667,278.3958333333333,701.167875
432,2017-06-30,442.58087500000005,287.65625,730.2371250000001
432,2017-07-01,386.8765,257.6875,644.5640000000001
432,2017-07-02,299.94083333333333,196.59375,496.53458333333333
432,2017-07-03,423.66766666666666,273.59375,697.2614166666667
432,2017-07-04,465.68058333333335,266.80833333333334,732.4889166666667
432,2017-07-05,286.53125,186.25,472.78125
432,2017-07-06,495.07279166666666,280.9895833333333,776.062375
432,2017-07-07,596.1479583333333,332.3229166666667,928.470875
432,2017-07-08,523.0190416666667,291.375,814.3940416666667
432,2017-07-09,402.07408333333336,245.72916666666666,647.80325
432,2017-07-10,576.9266666666666,311.3958333333333,888.3225
432,2017-07-11,647.5902083333334,342.8645833333333,990.4547916666668
432,2017-07-12,668.1449166666666,345.8333333333333,1013.9782499999999
432,2017-07-13,690.0382083333334,353.4583333333333,1043.4965416666666
432,2017-07-14,648.1387916666666,344.4479166666667,992.5867083333333
432,2017-07-15,383.658375,223.98958333333334,607.6479583333333
432,2017-07-16,263.9739583333333,177.32291666666666,441.296875
432,2017-07-17,370.34520833333335,229.29166666666666,599.636875
432,2017-07-18,597.2740416666667,319.8541666666667,917.1282083333333
432,2017-07-19,545.1567083333333,301.6458333333333,846.8025416666667
432,2017-07-20,514.8847916666667,283.9375,798.8222916666667
432,2017-07-21,500.3007916666666,269.3125,769.6132916666666
432,2017-07-22,293.95908333333335,192.10416666666666,486.06325000000004
432,2017-07-23,234.53745833333335,166.97916666666666,401.516625
432,2017-07-24,554.5008333333334,283.6770833333333,838.1779166666668
432,2017-07-25,659.9814166666666,327.65625,987.6376666666666
432,2017-07-26,656.366875,325.90625,982.273125
432,2017-07-27,549.710125,289.1354166666667,838.8455416666666
432,2017-07-28,447.9266666666667,250.94791666666666,698.8745833333334
432,2017-07-29,107.98195833333334,112.66666666666667,220.648625
432,2017-07-30,-17.56895833333333,57.53125,39.96229166666667
432,2017-07-31,339.406,217.0,556.406
432,2017-08-01,603.6357916666667,317.1875,920.8232916666667
432,2017-08-02,678.4307916666667,360.4270833333333,1038.857875
432,2017-08-03,633.2551666666667,357.6875,990.9426666666667
432,2017-08-04,701.8094166666666,379.5729166666667,1081.3823333333332
432,2017-08-05,242.11187500000003,173.69791666666666,415.8097916666667
432,2017-08-06,10.870375000000001,93.09375,103.964125
432,2017-08-07,508.9194583333333,283.3854166666667,792.304875
432,2017-08-08,839.79175,402.03125,1241.8229999999999
432,2017-08-09,807.0647083333333,404.8541666666667,1211.918875
432,2017-08-10,652.03425,357.40625,1009.4405
432,2017-08-11,487.92975,278.8541666666667,766.7839166666668
432,2017-08-12,361.7795416666667,205.4375,567.2170416666668
432,2017-08-13,207.322375,159.375,366.69737499999997
432,2017-08-14,501.7210416666667,306.5520833333333,808.2731249999999
432,2017-08-15,675.2037083333333,358.5,1033.7037083333335
432,2017-08-16,723.7435416666667,364.71875,1088.4622916666667
432,2017-08-17,641.8932083333333,343.1354166666667,985.0286249999999
432,2017-08-18,761.13125,392.8645833333333,1153.9958333333334
432,2017-08-19,196.65150000000003,148.34375,344.99525000000006
432,2017-08-20,17.385625,71.65625,89.041875
432,2017-08-21,466.6205,271.8125,738.433
432,2017-08-22,764.116875,386.6770833333333,1150.7939583333334
432,2017-08-23,725.53875,373.2395833333333,1098.7783333333334
432,2017-08-24,760.6454583333334,376.5729166666667,1137.2183750000002
432,2017-08-25,751.5336666666667,364.9375,1116.4711666666667
432,2017-08-26,186.07470833333332,140.4375,326.5122083333333
432,2017-08-27,11.887833333333333,67.86458333333333,79.75241666666666
432,2017-08-28,396.42216666666667,228.125,624.5471666666667
432,2017-08-29,528.7485416666667,306.53125,835.2797916666667
432,2017-08-30,595.902375,326.6041666666667,922.5065416666666
432,2017-08-31,674.3983333333333,368.4375,1042.8358333333333
432,2017-09-01,679.4027916666666,336.21875,1015.6215416666666
432,2017-09-02,146.45104166666667,125.29166666666667,271.7427083333333
432,2017-09-03,-2.954,65.01041666666667,62.05641666666667
432,2017-09-04,9.435083333333333,69.78125,79.21633333333334
432,2017-09-05,417.89183333333335,241.16666666666666,659.0585
432,2017-09-06,667.5686666666667,338.0729166666667,1005.6415833333333
432,2017-09-07,681.5016666666667,341.40625,1022.9079166666667
432,2017-09-08,622.4255833333333,310.5208333333333,932.9464166666667
432,2017-09-09,139.58729166666666,124.89583333333333,264.483125
432,2017-09-10,1.7324583333333334,70.54166666666667,72.274125
432,2017-09-11,402.8107916666667,235.64583333333334,638.456625
432,2017-09-12,586.2192916666667,327.8229166666667,914.0422083333333
432,2017-09-13,651.221,330.875,982.096
432,2017-09-14,677.777125,352.53125,1030.308375
432,2017-09-15,739.2616666666667,372.78125,1112.0429166666668
432,2017-09-16,496.23087499999997,258.625,754.855875
432,2017-09-17,107.2865,111.52083333333333,218.80733333333333
432,2017-09-18,475.686625,251.92708333333334,727.6137083333333
432,2017-09-19,742.915625,363.3020833333333,1106.2177083333333
432,2017-09-20,696.4965416666668,347.7395833333333,1044.2361250000001
432,2017-09-21,749.7152916666668,366.78125,1116.4965416666669
432,2017-09-22,728.747125,363.7395833333333,1092.4867083333334
432,2017-09-23,437.06216666666666,237.5,674.5621666666666
432,2017-09-24,103.2475,111.42708333333333,214.67458333333332
432,2017-09-25,463.7545,258.0208333333333,721.7753333333333
432,2017-09-26,737.5856666666667,356.09375,1093.6794166666668
432,2017-09-27,718.6617916666668,353.84375,1072.5055416666669
432,2017-09-28,714.7525,340.0625,1054.815
432,2017-09-29,674.7076666666667,325.8645833333333,1000.5722499999999
432,2017-09-30,405.6791666666666,219.875,625.5541666666666
432,2017-10-01,99.13712500000001,103.70833333333333,202.84545833333334
432,2017-10-02,496.47229166666665,266.09375,762.5660416666667
432,2017-10-03,781.424,368.75,1150.174
432,2017-10-04,719.5202916666667,348.1666666666667,1067.6869583333335
432,2017-10-05,724.7337916666667,352.1666666666667,1076.9004583333333
432,2017-10-06,804.192125,381.0208333333333,1185.2129583333333
432,2017-10-07,198.02108333333334,144.20833333333334,342.2294166666667
432,2017-10-08,16.242791666666665,66.94791666666667,83.19070833333333
432,2017-10-09,18.678833333333333,68.20833333333333,86.88716666666666
432,2017-10-10,516.0548333333334,276.9583333333333,793.0131666666666
432,2017-10-11,813.7675416666666,391.3229166666667,1205.0904583333333
432,2017-10-12,779.5765416666667,373.875,1153.4515416666668
432,2017-10-13,733.951625,361.7395833333333,1095.6912083333334
432,2017-10-14,429.02666666666664,238.80208333333334,667.82875
432,2017-10-15,97.95575000000001,110.67708333333333,208.63283333333334
432,2017-10-16,511.65108333333336,270.8333333333333,782.4844166666667
432,2017-10-17,698.8803333333334,338.09375,1036.9740833333335
432,2017-10-18,744.2914166666666,354.6145833333333,1098.906
432,2017-10-19,745.1208750000001,358.09375,1103.214625
432,2017-10-20,795.0916666666667,375.375,1170.4666666666667
432,2017-10-21,670.5374583333333,319.6145833333333,990.1520416666667
432,2017-10-22,546.770875,273.28125,820.052125
432,2017-10-23,664.4053749999999,318.4479166666667,982.8532916666666
432,2017-10-24,663.8596249999999,323.3333333333333,987.1929583333333
432,2017-10-25,634.2998333333334,326.4895833333333,960.7894166666667
432,2017-10-26,654.8997083333334,340.1666666666667,995.0663750000001
432,2017-10-27,747.9244583333334,360.125,1108.0494583333334
432,2017-10-28,621.1248333333333,298.3020833333333,919.4269166666666
432,2017-10-29,473.2260416666666,242.33854166666666,715.5645833333333
432,2017-10-30,667.0529583333333,316.5208333333333,983.5737916666667
432,2017-10-31,714.3327916666667,334.7395833333333,1049.072375
432,2017-11-01,704.3286666666667,336.9166666666667,1041.2453333333333
432,2017-11-02,726.0612500000001,345.5,1071.5612500000002
432,2017-11-03,766.0283333333333,355.3229166666667,1121.35125
432,2017-11-04,595.7079583333333,288.4583333333333,884.1662916666667
432,2017-11-05,351.74066666666664,206.32291666666666,558.0635833333333
432,2017-11-06,618.90325,308.25,927.15325
432,2017-11-07,746.71275,354.71875,1101.4315000000001
432,2017-11-08,708.1705000000001,344.34375,1052.5142500000002
432,2017-11-09,676.284,324.6145833333333,1000.8985833333334
432,2017-11-10,700.7054166666667,337.1354166666667,1037.8408333333334
432,2017-11-11,515.078625,268.6041666666667,783.6827916666666
432,2017-11-12,374.87379166666665,219.48958333333334,594.363375
432,2017-11-13,593.587125,302.7604166666667,896.3475416666668
432,2017-11-14,653.927,325.3541666666667,979.2811666666666
432,2017-11-15,614.3884166666667,307.4166666666667,921.8050833333334
432,2017-11-16,654.1158750000001,316.9270833333333,971.0429583333334
432,2017-11-17,787.9168333333333,366.4583333333333,1154.3751666666667
432,2017-11-18,607.4449583333334,298.6458333333333,906.0907916666667
432,2017-11-19,479.667375,244.4375,724.104875
432,2017-11-20,575.8652083333333,293.3229166666667,869.1881249999999
432,2017-11-21,785.7682083333334,361.5208333333333,1147.2890416666667
432,2017-11-22,746.4194166666666,350.4166666666667,1096.8360833333334
432,2017-11-23,454.84195833333337,245.47916666666666,700.321125
432,2017-11-24,386.83566666666667,221.30208333333334,608.13775
432,2017-11-25,358.8029166666667,207.95833333333334,566.76125
432,2017-11-26,420.51645833333333,224.39583333333334,644.9122916666666
432,2017-11-27,656.0015416666666,322.6979166666667,978.6994583333333
432,2017-11-28,708.5255000000001,342.4375,1050.9630000000002
432,2017-11-29,617.3482083333333,304.625,921.9732083333333
432,2017-11-30,591.8197083333333,339.3020833333333,931.1217916666667
432,2017-12-01,702.4408333333334,357.8229166666667,1060.26375
432,2017-12-02,531.4616666666667,272.2291666666667,803.6908333333333
432,2017-12-03,489.0122083333333,258.1354166666667,747.1476250000001
432,2017-12-04,703.1424999999999,337.8958333333333,1041.0383333333332
432,2017-12-05,715.1424999999999,338.1354166666667,1053.2779166666667
432,2017-12-06,648.9219583333334,308.9166666666667,957.8386250000001
432,2017-12-07,617.924625,298.8229166666667,916.7475416666666
432,2017-12-08,669.6219583333333,316.65625,986.2782083333333
432,2017-12-09,421.17833333333334,223.60416666666666,644.7825
432,2017-12-10,408.3793333333333,213.20833333333334,621.5876666666667
432,2017-12-11,642.2836666666667,302.5,944.7836666666667
432,2017-12-12,711.2860416666667,328.3645833333333,1039.650625
432,2017-12-13,726.9679583333333,337.0833333333333,1064.0512916666667
432,2017-12-14,719.1268749999999,335.875,1055.001875
432,2017-12-15,718.5812916666667,336.8125,1055.3937916666669
432,2017-12-16,513.7779583333333,249.69791666666666,763.475875
432,2017-12-17,378.763125,201.40625,580.169375
432,2017-12-18,617.4670416666667,298.8020833333333,916.269125
432,2017-12-19,722.9199166666667,343.9583333333333,1066.87825
432,2017-12-20,723.6404583333333,340.21875,1063.8592083333333
432,2017-12-21,654.024375,321.6041666666667,975.6285416666667
432,2017-12-22,741.671375,353.8645833333333,1095.5359583333334
432,2017-12-23,410.10650000000004,228.51041666666666,638.6169166666667
432,2017-12-24,216.32325,157.69791666666666,374.02116666666666
432,2017-12-25,183.44441666666668,144.75,328.1944166666667
432,2017-12-26,221.42408333333333,161.75,383.17408333333333
432,2017-12-27,514.6778333333333,269.1041666666667,783.7819999999999
432,2017-12-28,552.5013749999999,278.3020833333333,830.8034583333333
432,2017-12-29,520.399,298.6458333333333,819.0448333333334
432,2017-12-30,505.960125,250.9375,756.8976250000001
432,2017-12-31,368.05920833333334,213.70833333333334,581.7675416666667
432,2018-01-01,210.74166666666667,162.82291666666666,373.5645833333333
432,2018-01-02,163.805625,181.80208333333334,345.60770833333333
432,2018-01-03,298.2265,297.5625,595.789
432,2018-01-04,449.617375,299.0104166666667,748.6277916666667
432,2018-01-05,634.9844166666667,325.7604166666667,960.7448333333334
432,2018-01-06,332.529,283.15625,615.68525
432,2018-01-07,461.5842083333334,282.2604166666667,743.8446250000001
432,2018-01-08,615.8954166666666,336.6354166666667,952.5308333333332
432,2018-01-09,686.3213333333333,338.4479166666667,1024.76925
432,2018-01-10,757.1353333333333,353.8333333333333,1110.9686666666666
432,2018-01-11,758.258375,355.9166666666667,1114.1750416666666
432,2018-01-12,688.0830416666666,333.2395833333333,1021.322625
432,2018-01-13,550.6736666666667,268.1979166666667,818.8715833333333
432,2018-01-14,381.93870833333335,216.33333333333334,598.2720416666667
432,2018-01-15,377.8023333333333,213.67708333333334,591.4794166666667
432,2018-01-16,588.1880833333333,292.3958333333333,880.5839166666667
432,2018-01-17,688.8992499999999,323.5833333333333,1012.4825833333332
432,2018-01-18,740.6655416666667,344.7708333333333,1085.436375
432,2018-01-19,681.53175,323.3229166666667,1004.8546666666666
432,2018-01-20,526.795,268.84375,795.63875
432,2018-01-21,317.806125,200.69791666666666,518.5040416666667
432,2018-01-22,601.90325,306.4479166666667,908.3511666666666
432,2018-01-23,708.3045416666668,337.28125,1045.5857916666669
432,2018-01-24,665.909125,324.78125,990.690375
432,2018-01-25,624.1151666666666,310.875,934.9901666666666
432,2018-01-26,729.7757499999999,344.3541666666667,1074.1299166666665
432,2018-01-27,589.3919999999999,291.1979166666667,880.5899166666666
432,2018-01-28,355.1041666666667,212.73958333333334,567.84375
432,2018-01-29,589.1205,293.7708333333333,882.8913333333333
432,2018-01-30,726.1144583333333,345.2395833333333,1071.3540416666667
432,2018-01-31,312.0926666666667,165.22916666666666,477.3218333333333
432,2018-02-01,674.165625,340.21875,1014.384375
432,2018-02-02,686.8052916666667,335.5520833333333,1022.357375
432,2018-02-03,565.8767083333333,283.8020833333333,849.6787916666667
432,2018-02-04,441.4714583333334,237.05208333333334,678.5235416666667
432,2018-02-05,571.75525,297.2604166666667,869.0156666666667
432,2018-02-06,714.9115,344.71875,1059.6302500000002
432,2018-02-07,736.3049583333333,355.7604166666667,1092.065375
432,2018-02-08,730.1843749999999,356.15625,1086.3406249999998
432,2018-02-09,22.722791666666666,10.84375,33.566541666666666
432,2018-02-10,0.0,0.0,0.0
432,2018-02-11,183.648375,118.13541666666667,301.7837916666667
432,2018-02-12,535.3419166666666,278.2708333333333,813.61275
432,2018-02-13,732.2737916666666,362.0,1094.2737916666665
432,2018-02-14,769.8505416666667,363.8854166666667,1133.7359583333334
432,2018-02-15,743.4424166666666,364.84375,1108.2861666666668
432,2018-02-16,797.0297916666667,374.3541666666667,1171.3839583333333
432,2018-02-17,468.390375,242.73958333333334,711.1299583333333
432,2018-02-18,303.50029166666667,197.75,501.25029166666667
432,2018-02-19,80.21008333333333,100.52083333333333,180.73091666666664
432,2018-02-20,438.67991666666666,255.73958333333334,694.4195
432,2018-02-21,602.8470833333333,306.1354166666667,908.9825000000001
432,2018-02-22,845.9340416666668,395.8125,1241.7465416666669
432,2018-02-23,809.2857916666667,380.3854166666667,1189.6712083333334
432,2018-02-24,624.601,310.0,934.601
432,2018-02-25,482.82733333333334,258.625,741.4523333333334
432,2018-02-26,725.5115000000001,349.8854166666667,1075.3969166666668
432,2018-02-27,836.1791666666667,386.3541666666667,1222.5333333333333
432,2018-02-28,772.8516249999999,368.8958333333333,1141.7474583333333
432,2018-03-01,806.1094166666667,381.3541666666667,1187.4635833333334
432,2018-03-02,795.3651249999999,384.0,1179.3651249999998
432,2018-03-03,601.0622916666667,306.34375,907.4060416666667
432,2018-03-04,215.57558333333336,181.61458333333334,397.1901666666667
432,2018-03-05,565.922,291.6979166666667,857.6199166666668
432,2018-03-06,714.7997083333333,357.09375,1071.8934583333335
432,2018-03-07,619.9874583333334,329.7083333333333,949.6957916666668
432,2018-03-08,630.1549166666667,317.5104166666667,947.6653333333334
432,2018-03-09,642.1589166666666,320.9479166666667,963.1068333333333
432,2018-03-10,131.93125,124.69791666666667,256.62916666666666
432,2018-03-11,-30.886583333333334,59.447916666666664,28.56133333333333
432,2018-03-12,395.82099999999997,236.3125,632.1334999999999
432,2018-03-13,604.958,312.5,917.458
432,2018-03-14,523.6127083333333,274.2708333333333,797.8835416666666
432,2018-03-15,494.51983333333334,265.375,759.8948333333333
432,2018-03-16,384.32649999999995,223.41666666666666,607.7431666666666
432,2018-03-17,65.937375,102.98958333333333,168.92695833333335
432,2018-03-18,-36.256499999999996,59.875,23.618500000000004
432,2018-03-19,274.349,184.3125,458.6615
432,2018-03-20,483.67816666666664,257.65625,741.3344166666666
432,2018-03-21,446.304625,240.23958333333334,686.5442083333334
432,2018-03-22,406.14450000000005,225.72916666666666,631.8736666666667
432,2018-03-23,640.0920416666667,317.4270833333333,957.519125
432,2018-03-24,180.743125,139.92708333333334,320.67020833333333
432,2018-03-25,-30.721416666666666,61.302083333333336,30.58066666666667
432,2018-03-26,410.543125,236.95833333333334,647.5014583333333
432,2018-03-27,680.9884583333334,335.9479166666667,1016.936375
432,2018-03-28,706.8401250000001,357.5416666666667,1064.3817916666667
432,2018-03-29,672.3552083333333,356.3645833333333,1028.7197916666667
432,2018-03-30,170.46945833333334,134.36458333333334,304.8340416666667
432,2018-03-31,-10.18925,63.927083333333336,53.737833333333334
432,2018-04-01,-11.458833333333333,63.291666666666664,51.83283333333333
432,2018-04-02,485.85620833333337,270.2916666666667,756.1478750000001
432,2018-04-03,769.6539166666666,371.8333333333333,1141.48725
432,2018-04-04,740.0233333333334,356.2083333333333,1096.2316666666668
432,2018-04-05,850.1524166666667,394.0,1244.1524166666668
432,2018-04-06,769.3058333333333,367.5520833333333,1136.8579166666666
432,2018-04-07,151.705625,127.11458333333333,278.8202083333333
432,2018-04-08,-6.503041666666667,65.86458333333333,59.36154166666666
432,2018-04-09,489.0539166666667,267.3229166666667,756.3768333333334
432,2018-04-10,533.542375,278.4375,811.979875
432,2018-04-11,599.6179166666667,298.0416666666667,897.6595833333333
432,2018-04-12,691.056625,336.9479166666667,1028.0045416666667
432,2018-04-13,557.084375,287.3854166666667,844.4697916666667
432,2018-04-14,140.11137499999998,122.4375,262.54887499999995
432,2018-04-15,-8.88325,65.84375,56.960499999999996
432,2018-04-16,482.4246666666666,270.3854166666667,752.8100833333333
432,2018-04-17,767.0524999999999,363.8333333333333,1130.8858333333333
432,2018-04-18,671.306375,326.2604166666667,997.5667916666666
432,2018-04-19,587.4445833333333,329.59375,917.0383333333333
432,2018-04-20,773.100375,381.625,1154.725375